Weather History for K20V - March, 2012

Change the Weather History Date:

Monday, March 12, 2012

  Actual Average (KEGE) Record (KEGE)
Temperature  
Mean Temperature 39 °F -  
Max Temperature 55 °F 47 °F 63 °F (1972)
Min Temperature 23 °F 20 °F -12 °F (1956)
Degree Days  
Heating Degree Days 26    
Moisture  
Dew Point 12 °F    
Average Humidity 34    
Maximum Humidity 69    
Minimum Humidity 14    
Precipitation  
Precipitation 0.00 in - - ()
Sea Level Pressure  
Sea Level Pressure 30.01 in    
Wind  
Wind Speed 5 mph (SW)    
Max Wind Speed 18 mph    
Max Gust Speed 25 mph    
Visibility 10 miles    
Events      
Averages and records for this station are not official NWS values.
T = Trace of Precipitation, MM = Missing Value Source: NWS Daily Summary

Daily Weather History Graph

Daily Weather History Graph

Search for Another Location

Airport or City:

Trip Planner

Search our weather history database for the weather conditions in past years. The results will help you decide how hot, cold, wet, or windy it might be!

Date:

Astronomy

Mar. 12, 2012 Rise Set
Actual Time 7:20 AM MDT 7:09 PM MDT
Civil Twilight 6:53 AM MDT 7:36 PM MDT
Nautical Twilight 6:22 AM MDT 8:08 PM MDT
Astronomical Twilight 5:50 AM MDT 8:40 PM MDT
Moon No Moon Rise 9:44 AM MDT (3/12)
Length of Visible Light 12h 42m
Length of Day
11h 48m
Waning Gibbous, 75% of the Moon is Illuminated
Mar 12
Waning Gibbous
Mar 14
Last Quarter
Mar 22
New
Mar 30
First Quarter
Apr 6
Full

Hourly Weather History & Observations

Time (MDT) Temp. Windchill Dew Point Humidity Pressure Visibility Wind Dir Wind Speed Gust Speed Precip Events Conditions
12:18 AM 32.0 °F - 15.8 °F 51% 29.88 in 10.0 mi Calm Calm - N/A   Clear
12:38 AM 32.0 °F - 14.0 °F 48% 29.89 in 10.0 mi Calm Calm - N/A   Clear
12:58 AM 30.2 °F 26.7 °F 15.8 °F 55% 29.89 in 10.0 mi SSW 3.5 mph - N/A   Clear
1:18 AM 30.2 °F - 17.6 °F 60% 29.89 in 10.0 mi Calm Calm - N/A   Clear
1:57 AM 28.4 °F - 17.6 °F 64% 29.90 in 10.0 mi Calm Calm - N/A   Clear
2:17 AM 32.0 °F 26.4 °F 15.8 °F 51% 29.91 in 10.0 mi West 5.8 mph - N/A   Clear
2:38 AM 35.6 °F 29.9 °F 12.2 °F 38% 29.91 in 10.0 mi WNW 6.9 mph - N/A   Clear
2:58 AM 33.8 °F 28.6 °F 14.0 °F 44% 29.91 in 10.0 mi SSE 5.8 mph - N/A   Clear
3:18 AM 30.2 °F - 17.6 °F 60% 29.91 in 10.0 mi Calm Calm - N/A   Clear
3:38 AM 33.8 °F - 12.2 °F 41% 29.91 in 10.0 mi Calm Calm - N/A   Clear
3:58 AM 30.2 °F 24.3 °F 14.0 °F 51% 29.92 in 10.0 mi ESE 5.8 mph - N/A   Clear
4:18 AM 30.2 °F - 15.8 °F 55% 29.92 in 10.0 mi Calm Calm - N/A   Clear
4:38 AM 28.4 °F 24.6 °F 15.8 °F 59% 29.93 in 10.0 mi NE 3.5 mph - N/A   Clear
4:57 AM 30.2 °F 26.7 °F 14.0 °F 51% 29.94 in 10.0 mi East 3.5 mph - N/A   Clear
5:18 AM 30.2 °F - 15.8 °F 55% 29.95 in 10.0 mi Calm Calm - N/A   Clear
5:38 AM 30.2 °F - 14.0 °F 51% 29.96 in 10.0 mi Calm Calm - N/A   Clear
5:57 AM 30.2 °F 26.7 °F 15.8 °F 55% 29.97 in 10.0 mi North 3.5 mph - N/A   Clear
6:18 AM 30.2 °F 26.7 °F 17.6 °F 60% 29.98 in 10.0 mi North 3.5 mph - N/A   Clear
6:38 AM 23.0 °F - 14.0 °F 68% 29.99 in 10.0 mi Calm Calm - N/A   Clear
6:58 AM 28.4 °F 24.6 °F 14.0 °F 55% 29.99 in 10.0 mi West 3.5 mph - N/A   Clear
7:18 AM 28.4 °F 24.6 °F 15.8 °F 59% 30.00 in 10.0 mi NNE 3.5 mph - N/A   Clear
7:38 AM 24.8 °F 16.9 °F 15.8 °F 69% 30.01 in 10.0 mi East 6.9 mph - N/A   Clear
7:58 AM 32.0 °F 26.4 °F 12.2 °F 44% 30.02 in 10.0 mi SSE 5.8 mph - N/A   Clear
8:18 AM 37.4 °F - 8.6 °F 30% 30.03 in 10.0 mi Calm Calm - N/A   Clear
8:37 AM 37.4 °F 30.8 °F 10.4 °F 33% 30.04 in 10.0 mi WSW 9.2 mph - N/A   Clear
8:58 AM 41.0 °F 36.4 °F 10.4 °F 29% 30.04 in 10.0 mi West 6.9 mph - N/A   Clear
9:17 AM 41.0 °F 36.4 °F 10.4 °F 29% 30.05 in 10.0 mi WSW 6.9 mph - N/A   Clear
9:38 AM 42.8 °F 36.6 °F 10.4 °F 27% 30.05 in 10.0 mi WSW 11.5 mph - N/A   Clear
9:58 AM 42.8 °F 35.8 °F 8.6 °F 25% 30.06 in 10.0 mi SW 13.8 mph 24.2 mph N/A   Clear
10:18 AM 44.6 °F 36.9 °F 10.4 °F 25% 30.06 in 10.0 mi WSW 18.4 mph 25.3 mph N/A   Clear
10:38 AM 46.4 °F 40.7 °F 10.4 °F 23% 30.06 in 10.0 mi SW 12.7 mph 23.0 mph N/A   Clear
10:58 AM 48.2 °F - 10.4 °F 22% 30.07 in 10.0 mi SW 12.7 mph 17.3 mph N/A   Clear
11:18 AM 50.0 °F - 10.4 °F 20% 30.07 in 10.0 mi SW 12.7 mph 17.3 mph N/A   Clear
11:38 AM 50.0 °F - 10.4 °F 20% 30.07 in 10.0 mi WSW 9.2 mph 19.6 mph N/A   Clear
11:58 AM 50.0 °F - 10.4 °F 20% 30.07 in 10.0 mi WSW 16.1 mph 19.6 mph N/A   Clear
12:18 PM 50.0 °F - 10.4 °F 20% 30.07 in 10.0 mi WSW 13.8 mph 18.4 mph N/A   Clear
12:38 PM 51.8 °F - 10.4 °F 19% 30.06 in 10.0 mi SW 12.7 mph 20.7 mph N/A   Clear
12:58 PM 51.8 °F - 10.4 °F 19% 30.06 in 10.0 mi SW 11.5 mph - N/A   Clear
1:18 PM 53.6 °F - 10.4 °F 18% 30.06 in 10.0 mi SW 15.0 mph 18.4 mph N/A   Clear
1:57 PM 53.6 °F - 10.4 °F 18% 30.04 in 10.0 mi SSW 11.5 mph - N/A   Clear
2:18 PM 53.6 °F - 8.6 °F 16% 30.04 in 10.0 mi SW 10.4 mph 18.4 mph N/A   Clear
2:38 PM 53.6 °F - 8.6 °F 16% 30.04 in 10.0 mi WSW 10.4 mph 18.4 mph N/A   Clear
3:17 PM 53.6 °F - 5.0 °F 14% 30.04 in 10.0 mi SW 8.1 mph - N/A   Clear
3:38 PM 53.6 °F - 8.6 °F 16% 30.04 in 10.0 mi WSW 11.5 mph 20.7 mph N/A   Clear
3:58 PM 55.4 °F - 10.4 °F 17% 30.04 in 10.0 mi WSW 11.5 mph 21.9 mph N/A   Clear
4:18 PM 55.4 °F - 8.6 °F 15% 30.04 in 10.0 mi WSW 13.8 mph 20.7 mph N/A   Clear
4:38 PM 53.6 °F - 6.8 °F 15% 30.04 in 10.0 mi WSW 13.8 mph 23.0 mph N/A   Clear
4:58 PM 53.6 °F - 6.8 °F 15% 30.04 in 10.0 mi WSW 11.5 mph 20.7 mph N/A   Clear
5:18 PM 53.6 °F - 8.6 °F 16% 30.04 in 10.0 mi WSW 12.7 mph 17.3 mph N/A   Clear
5:38 PM 53.6 °F - 8.6 °F 16% 30.03 in 10.0 mi WSW 8.1 mph 12.7 mph N/A   Clear
5:58 PM 53.6 °F - 8.6 °F 16% 30.04 in 10.0 mi WSW 12.7 mph - N/A   Clear
6:18 PM 51.8 °F - 6.8 °F 16% 30.04 in 10.0 mi WSW 12.7 mph 17.3 mph N/A   Clear
6:38 PM 50.0 °F - 6.8 °F 17% 30.04 in 10.0 mi WSW 8.1 mph 16.1 mph N/A   Clear
6:58 PM 46.4 °F 41.5 °F 10.4 °F 23% 30.04 in 10.0 mi WSW 10.4 mph - N/A   Clear
7:18 PM 46.4 °F 41.1 °F 10.4 °F 23% 30.05 in 10.0 mi SW 11.5 mph - N/A   Clear
7:38 PM 44.6 °F 39.7 °F 10.4 °F 25% 30.06 in 10.0 mi SSW 9.2 mph - N/A   Clear
7:58 PM 42.8 °F - 10.4 °F 27% 30.06 in 10.0 mi Calm Calm - N/A   Clear
8:18 PM 41.0 °F 38.0 °F 10.4 °F 29% 30.07 in 10.0 mi SSE 4.6 mph - N/A   Clear
8:38 PM 37.4 °F 32.8 °F 12.2 °F 36% 30.08 in 10.0 mi SE 5.8 mph - N/A   Clear
8:58 PM 37.4 °F - 12.2 °F 36% 30.09 in 10.0 mi Calm Calm - N/A   Clear
9:18 PM 41.0 °F 39.0 °F 10.4 °F 29% 30.08 in 10.0 mi SSE 3.5 mph - N/A   Clear
9:38 PM 32.0 °F 28.7 °F 15.8 °F 51% 30.09 in 10.0 mi SSE 3.5 mph - N/A   Clear
9:58 PM 32.0 °F 28.7 °F 17.6 °F 55% 30.10 in 10.0 mi ESE 3.5 mph - N/A   Clear
10:18 PM 32.0 °F - 17.6 °F 55% 30.10 in 10.0 mi Calm Calm - N/A   Clear
10:38 PM 30.2 °F 25.4 °F 17.6 °F 60% 30.10 in 10.0 mi SE 4.6 mph - N/A   Clear
10:58 PM 30.2 °F 24.3 °F 17.6 °F 60% 30.11 in 10.0 mi ESE 5.8 mph - N/A   Clear
11:18 PM 32.0 °F - 17.6 °F 55% 30.11 in 10.0 mi Calm Calm - N/A   Clear
11:38 PM 30.2 °F - 17.6 °F 60% 30.11 in 10.0 mi Calm Calm - N/A   Clear
11:57 PM 30.2 °F 26.7 °F 19.4 °F 64% 30.11 in 10.0 mi NE 3.5 mph - N/A   Clear